Location: Unspecified
(0.0000°N, 0.0000°E)
Time: 01:26:39
(UTC+00:00)

Vanguard 1 Rocket - Pass Details

Date: 27 November 2019
Orbit: 650 x 4226 km, 34.3° (Epoch: 10 December)

Event Time Altitude Azimuth Distance (km) Brightness Sun altitude
Rises 14:14:30 0° 239° (WSW) 6,894 12.6 48.4°
Reaches altitude 10° 14:21:01 10° 224° (SW) 6,447 12.7 47.0°
Maximum altitude 14:36:37 21° 180° (S) 6,329 12.3 43.7°
Drops below altitude 10° 14:54:24 10° 137° (SE) 7,319 12.0 39.8°
Sets 15:02:44 0° 122° (ESE) 8,016 12.0 37.9°
